Weather in Novoivanivka

Ukraine / Dnipropetrovsk Region     47°47′00″N   34°26′30″E
temp.,
°C
wind,
m/s
gust,
m/s
humid.,
%
clouds,
%
prec.,
mm/h
press.,
hPa
HPBL,
m
26 october, tue
tue2600:00+3ese33560 0.0 103423
03:00+2e22600 0.0 103419
06:00+1e22590 0.0 103419
09:00+3ese34500 0.0 1034189
12:00+8sse44345 0.0 1033793
15:00+10sse33271 0.0 1031945
18:00+6e33375 0.0 103125
21:00+5sse35555 0.0 103170
27 october, wed
wed2700:00+3sse35680 0.0 103068
03:00+2sse33715 0.0 103021
06:00+1se22760 0.0 102915
09:00+5se23610 0.0 1029157
12:00+10s34430 0.0 1027669
15:00+11wsw33360 0.0 1025872
18:00+7ssw22510 0.0 102513
21:00+6w225766 0.0 102510
28 october, thu
thu2800:00+6wnw2362100 0.0 102517
03:00+5wnw3381100 0.0 102530
06:00+5wnw2285100 0.0 102517
09:00+7w2468100 0.0 1026120
12:00+14w454834 0.0 1025685
15:00+16w674024 0.0 10231186
18:00+12w465479 0.0 102380
21:00+10w496745 0.0 1023152
29 october, fri
fri2900:00+12wnw3863100 0.0 1022243
03:00+12nw387497 0.0 1023318
06:00+10n488665 0.0 1024234
09:00+10nne47835 0.0 1026270
12:00+15nne44555 0.0 10271000
15:00+16nne34453 0.0 10271375
18:00+12ne33574 0.0 102834
21:00+10e510655 0.0 1030233
30 october, sat
sat3000:00+8e410780 0.0 1032206
03:00+6e48820 0.0 1032141
06:00+5e47815 0.0 1033127
09:00+7ese58684 0.0 1034283
12:00+11ese56435 0.0 1034650
15:00+13se56310 0.0 1033812
18:00+9ese33370 0.0 103336
21:00+7se47530 0.0 103497